Wind_Speed
24 25 25 26 28 29 30 31 31 31 32 33 33 33 33 34 35 35 37 38 39 40 41 42 42 42 42 43 43 44 44 45 45 44 44 44 44 44 44 45 45 45 45 45
24 25 25 27 27 29 30 31 31 32 33 33 34 34 33 34 33 33 35 35 37 38 40 40 41 42 43 43 43 44 45 45 46 45 46 46 47 47 47 47 47 47 47 47
24 25 26 27 28 29 29 31 32 32 33 33 34 33 32 32 32 33 34 35 36 36 37 39 40 41 42 43 43 43 44 45 45 46 46 47 48 49 49 49 49 49 48 49
25 26 27 28 28 29 30 30 31 32 32 33 33 34 31 31 31 31 32 33 34 35 36 37 38 39 40 41 43 44 44 46 47 47 47 48 49 49 49 50 51 51 50 50
25 26 26 27 27 28 29 29 30 31 32 33 32 34 32 30 30 31 31 32 33 34 35 36 37 38 39 40 41 42 44 45 46 47 49 48 48 48 49 50 51 51 51 51
25 26 26 27 27 28 29 30 31 31 31 32 32 34 33 31 31 31 31 32 33 34 35 36 36 37 39 39 40 42 43 44 46 47 48 49 49 49 49 49 50 51 52 52
25 25 26 27 27 28 29 30 32 32 32 33 33 34 34 33 32 32 32 33 34 34 35 36 37 37 39 40 41 42 43 45 46 47 48 49 51 51 50 50 51 52 51 52
26 25 26 27 28 29 29 30 32 34 34 34 34 34 34 34 33 33 34 34 35 36 36 37 38 38 40 41 42 42 43 45 47 48 49 50 50 51 52 52 52 52 52 52
27 27 28 28 28 29 30 30 31 34 35 36 35 35 35 34 34 35 35 35 36 37 37 38 38 39 40 41 43 44 45 46 48 49 50 51 51 51 52 52 52 52 53 54
29 29 28 28 29 30 31 31 32 33 36 38 36 35 36 35 35 36 36 37 37 38 38 39 39 40 41 42 44 45 46 47 48 49 50 51 51 51 52 52 52 52 53 54
30 31 30 31 31 32 32 33 34 36 37 38 39 36 37 37 37 37 38 38 39 39 39 40 40 40 41 43 44 46 47 47 48 49 50 51 52 53 53 52 53 54 54 54
31 32 32 32 33 33 34 35 36 37 38 38 40 38 38 38 38 38 38 38 38 39 39 40 40 41 42 43 44 46 47 48 48 48 50 51 52 52 53 53 54 55 55 55
33 33 34 34 35 35 36 36 38 38 39 40 41 39 39 39 39 40 40 40 39 39 40 41 41 41 42 43 44 45 46 47 48 48 50 51 52 53 53 53 53 54 55 55
35 35 36 36 37 37 37 38 39 40 41 42 41 40 39 40 41 41 41 42 41 41 42 42 42 42 43 43 44 46 46 47 48 49 49 50 52 53 54 54 54 54 54 54
36 37 37 37 38 38 39 39 40 42 42 44 42 41 39 40 41 42 42 42 43 43 43 44 44 44 44 45 45 46 47 48 48 49 50 50 52 52 53 54 54 53 54 54
37 38 39 39 39 40 40 40 41 41 42 43 42 41 40 41 42 42 43 43 44 44 45 45 45 45 45 45 46 46 47 48 49 50 50 51 52 52 52 52 52 53 54 54
39 40 41 41 40 41 41 40 40 41 41 41 41 40 40 41 42 42 43 43 44 44 45 46 46 46 45 45 46 46 47 48 48 49 49 49 50 51 51 51 51 52 53 53
40 41 42 42 42 42 41 41 41 41 40 41 41 40 41 41 42 43 44 44 44 45 45 45 45 46 45 45 46 46 47 47 47 48 48 49 49 49 50 49 50 51 51 52
41 41 42 43 44 44 42 42 43 43 41 41 41 42 42 43 44 44 45 45 45 46 46 45 45 45 45 45 45 45 45 46 46 47 48 48 48 48 49 49 49 50 50 50
41 42 43 44 45 46 45 44 44 44 43 42 42 43 43 44 45 44 46 46 46 46 46 46 45 44 44 44 44 44 44 45 46 46 47 48 48 49 49 49 49 50 50 50
42 43 44 45 46 47 46 47 46 46 45 44 44 44 45 45 46 46 46 46 46 46 46 46 45 45 44 44 43 43 43 44 45 46 46 47 47 47 48 48 48 49 49 49
43 44 44 45 46 46 45 46 46 46 46 46 46 46 46 46 46 47 46 46 46 46 46 46 45 44 44 43 43 43 43 43 44 44 45 45 46 46 46 46 47 47 48 48
43 43 44 45 45 45 45 45 45 46 46 46 47 47 47 47 47 47 47 46 46 46 46 46 45 44 43 43 43 43 43 43 43 42 42 43 43 44 44 45 45 46 46 46
42 43 44 44 43 43 44 44 45 45 46 47 47 47 47 47 47 47 47 46 46 47 47 46 45 44 44 43 43 43 42 42 42 41 41 41 41 42 43 43 43 45 45 45
42 44 45 45 44 44 44 45 45 45 46 46 47 47 47 48 47 47 47 47 47 46 46 45 44 44 44 43 42 42 41 41 40 40 39 40 40 40 41 42 42 43 44 44
42 44 45 45 44 45 44 44 45 45 46 46 46 46 47 47 47 47 47 47 46 45 45 44 44 43 43 42 42 41 40 39 40 39 39 40 40 40 41 41 41 42 43 43
Wind_Direction
282 282 282 281 281 281 281 280 279 277 277 276 274 272 271 272 271 270 269 268 268 267 265 263 262 261 260 259 259 258 257 256 256 256 255 255 257 257 258 258 258 258 258 257
283 284 285 284 284 283 282 281 281 280 278 277 276 275 273 274 275 274 272 272 271 269 267 265 263 262 261 260 260 259 258 257 256 256 256 256 256 257 258 258 259 259 258 258
286 287 286 285 286 285 285 284 284 283 281 279 279 278 277 275 275 275 274 273 273 272 269 268 266 265 263 261 260 260 259 259 258 257 257 257 257 257 258 258 259 259 258 258
289 289 288 287 288 288 287 287 286 285 283 282 282 281 279 279 277 277 276 274 275 275 272 269 268 267 265 263 262 260 259 258 258 258 258 258 258 258 258 259 259 258 258 258
292 291 290 289 289 290 289 288 287 286 285 284 283 283 282 282 281 280 278 277 277 277 274 271 269 268 267 265 263 261 260 258 258 258 258 259 259 259 259 259 259 258 259 259
294 294 293 293 291 290 290 290 289 287 286 286 287 287 285 285 285 283 280 279 278 277 275 273 270 268 267 267 265 262 261 261 259 258 259 260 260 260 260 260 260 259 259 259
295 294 294 295 294 291 291 291 291 290 289 289 289 288 289 289 288 286 284 282 279 277 276 274 272 270 268 268 267 266 264 263 261 260 260 261 261 261 261 261 261 260 260 261
295 295 295 295 295 294 293 293 293 292 292 291 290 291 293 291 289 287 285 284 282 280 278 276 274 273 271 269 268 267 266 265 263 262 261 262 262 261 261 261 262 262 262 262
297 297 296 296 297 296 295 295 295 293 292 292 292 294 293 294 292 289 288 286 284 282 280 278 276 274 273 271 270 269 268 267 265 264 263 262 263 263 262 262 262 262 262 262
297 297 297 297 297 297 296 295 295 295 295 295 295 296 296 296 296 293 290 287 285 284 282 281 279 277 275 273 271 269 269 268 268 266 265 264 263 263 262 261 262 262 262 262
298 297 297 296 297 297 296 295 294 294 294 295 296 298 297 298 297 295 293 289 286 284 284 283 281 279 278 276 274 272 270 270 269 268 266 265 265 264 263 263 263 263 263 263
298 297 296 296 295 294 294 294 294 293 293 293 294 297 297 297 297 295 293 291 288 285 285 284 282 279 279 278 275 274 272 270 270 269 268 267 266 265 264 264 264 264 264 264
296 296 297 296 295 294 294 294 293 292 291 291 292 296 297 296 296 294 292 291 290 287 285 284 284 282 281 279 277 275 274 272 271 270 269 268 267 266 265 265 265 265 265 265
295 295 295 296 296 294 293 292 291 291 291 291 293 294 294 294 294 292 291 291 290 289 287 285 284 283 282 281 279 276 275 274 272 271 270 269 268 267 266 265 266 266 266 265
294 293 293 293 293 292 292 291 290 290 292 292 294 292 293 292 292 291 291 291 290 289 288 287 286 284 283 282 280 278 275 274 272 272 271 270 269 268 267 266 265 265 265 265
292 292 292 292 292 291 291 291 291 292 292 293 293 293 293 291 291 291 291 291 291 290 288 287 286 286 284 282 281 280 278 275 273 272 271 271 270 268 267 267 265 264 265 265
292 292 293 293 294 293 292 294 293 293 292 292 292 293 291 291 292 292 291 291 291 291 291 288 287 286 285 283 281 280 279 278 276 273 271 272 270 269 268 268 267 266 266 265
292 292 292 292 294 293 296 295 294 294 294 293 292 292 292 292 292 292 292 291 291 291 291 290 289 287 285 284 283 281 280 279 277 274 272 272 271 271 269 269 267 267 267 266
291 291 291 292 293 293 295 296 296 296 294 294 294 293 292 292 291 291 291 291 291 291 291 291 291 289 287 285 283 282 281 280 278 276 274 273 272 271 270 269 269 268 267 266
290 290 291 292 293 293 295 295 295 295 295 295 295 294 294 294 293 293 292 291 291 291 291 291 291 290 288 286 284 283 283 281 280 278 276 275 273 271 270 270 268 268 267 266
290 290 291 292 292 292 294 294 295 295 296 295 295 295 295 295 295 294 293 292 291 291 291 291 290 289 288 286 285 284 283 282 281 280 278 276 275 273 271 270 269 268 267 267
291 291 291 292 292 294 294 294 294 295 295 294 294 294 295 295 296 295 294 293 291 291 291 291 290 289 287 286 285 284 283 283 281 280 278 277 275 274 273 271 270 270 269 268
291 292 292 292 293 294 294 294 294 294 294 294 294 295 295 295 295 295 294 293 292 291 291 291 290 289 287 286 286 285 284 283 282 280 278 277 276 275 275 273 271 271 271 270
291 291 292 292 293 293 293 293 293 293 293 294 295 295 295 295 295 295 295 294 293 292 291 290 290 288 287 286 286 286 285 284 282 280 279 278 277 276 276 275 273 271 272 271
291 291 292 293 293 293 293 293 293 293 293 294 295 295 296 296 296 296 296 295 294 293 291 290 289 288 287 286 286 285 284 283 282 281 279 278 278 277 276 275 275 274 274 273
291 291 292 293 293 293 293 293 293 293 293 294 295 295 296 297 296 296 296 296 295 294 292 291 290 289 287 286 285 285 284 283 282 280 279 278 278 278 278 277 276 276 275 274
Height
5706 5706 5704 5703 5702 5701 5700 5699 5698 5698 5696 5695 5694 5695 5695 5694 5693 5693 5692 5692 5692 5692 5692 5693 5694 5695 5696 5698 5699 5701 5703 5704 5706 5708 5709 5711 5712 5712 5714 5714 5716 5717 5718 5719
5702 5700 5699 5697 5695 5694 5693 5691 5690 5690 5688 5687 5686 5686 5686 5685 5685 5684 5683 5682 5682 5681 5681 5682 5683 5684 5686 5687 5688 5690 5691 5693 5695 5696 5698 5699 5700 5701 5702 5703 5705 5706 5707 5708
5695 5695 5692 5691 5689 5688 5686 5685 5683 5682 5680 5679 5678 5678 5678 5677 5676 5676 5675 5673 5672 5672 5672 5672 5672 5673 5674 5676 5677 5678 5680 5681 5683 5685 5686 5687 5688 5689 5691 5692 5693 5694 5695 5696
5689 5688 5686 5684 5683 5681 5680 5678 5676 5674 5672 5671 5670 5668 5671 5670 5669 5668 5666 5665 5664 5663 5662 5662 5662 5663 5664 5665 5665 5667 5668 5669 5671 5672 5674 5675 5676 5677 5678 5679 5680 5681 5682 5684
5684 5682 5680 5678 5677 5674 5673 5671 5669 5667 5665 5663 5663 5660 5663 5662 5661 5660 5658 5656 5655 5654 5652 5652 5652 5652 5653 5653 5654 5655 5656 5657 5658 5660 5661 5662 5663 5665 5666 5666 5667 5667 5669 5670
5679 5676 5674 5672 5670 5668 5666 5664 5662 5660 5658 5657 5656 5653 5653 5653 5653 5651 5649 5647 5646 5644 5643 5642 5642 5642 5642 5643 5643 5644 5644 5645 5646 5647 5648 5650 5651 5652 5653 5653 5654 5655 5655 5657
5673 5671 5669 5666 5664 5662 5660 5658 5655 5652 5650 5649 5648 5645 5646 5645 5644 5642 5640 5639 5637 5635 5634 5633 5632 5632 5632 5632 5632 5632 5633 5633 5633 5634 5635 5636 5637 5639 5640 5640 5641 5642 5643 5644
5666 5665 5663 5660 5658 5656 5653 5651 5649 5645 5643 5642 5640 5638 5640 5637 5635 5633 5632 5630 5627 5626 5624 5623 5622 5622 5621 5621 5621 5621 5621 5621 5621 5622 5623 5623 5624 5625 5626 5627 5627 5628 5629 5630
5660 5659 5657 5654 5652 5650 5647 5644 5642 5639 5635 5633 5632 5631 5631 5629 5626 5624 5622 5620 5618 5616 5614 5612 5611 5611 5610 5609 5608 5608 5608 5608 5608 5609 5609 5610 5610 5611 5612 5612 5613 5614 5615 5616
5653 5652 5650 5648 5645 5643 5641 5638 5635 5631 5627 5624 5624 5623 5622 5620 5617 5615 5613 5610 5608 5605 5603 5602 5600 5599 5598 5597 5596 5595 5595 5595 5595 5595 5595 5596 5596 5597 5597 5598 5599 5600 5600 5601
5647 5645 5643 5641 5638 5636 5634 5631 5627 5623 5620 5617 5614 5617 5613 5611 5608 5606 5603 5600 5597 5595 5593 5591 5589 5587 5585 5584 5583 5582 5582 5581 5581 5581 5581 5581 5581 5582 5583 5584 5584 5585 5585 5586
5640 5637 5635 5634 5631 5628 5625 5622 5619 5616 5613 5609 5605 5609 5605 5602 5598 5595 5592 5589 5586 5584 5582 5580 5578 5575 5573 5571 5570 5569 5568 5567 5567 5566 5566 5567 5567 5567 5568 5568 5569 5569 5570 5571
5632 5629 5627 5625 5624 5621 5617 5614 5611 5607 5604 5600 5597 5601 5595 5592 5588 5585 5582 5578 5576 5573 5571 5568 5566 5563 5561 5558 5556 5555 5554 5554 5553 5552 5552 5552 5552 5552 5553 5554 5554 5554 5554 5555
5623 5621 5619 5617 5613 5610 5608 5605 5601 5597 5594 5591 5590 5589 5587 5582 5578 5574 5571 5567 5565 5562 5559 5557 5554 5551 5549 5546 5544 5542 5541 5540 5539 5539 5538 5538 5537 5537 5538 5538 5538 5539 5539 5540
5615 5612 5610 5607 5604 5600 5598 5595 5591 5588 5585 5581 5580 5577 5576 5572 5567 5563 5560 5556 5554 5551 5548 5545 5542 5539 5536 5534 5531 5529 5528 5526 5526 5525 5524 5524 5523 5522 5522 5522 5523 5523 5523 5524
5605 5602 5600 5598 5595 5590 5588 5586 5582 5578 5575 5571 5568 5566 5565 5560 5556 5552 5548 5545 5542 5539 5536 5533 5529 5526 5524 5521 5518 5516 5514 5512 5511 5511 5510 5509 5508 5508 5507 5507 5508 5508 5508 5509
5595 5592 5589 5586 5584 5579 5577 5577 5572 5568 5565 5561 5557 5556 5552 5548 5545 5541 5537 5533 5530 5527 5523 5520 5517 5514 5511 5508 5505 5503 5501 5499 5497 5496 5496 5495 5494 5493 5493 5493 5493 5493 5493 5494
5586 5582 5577 5574 5572 5568 5570 5565 5561 5557 5555 5551 5547 5544 5541 5537 5533 5529 5525 5522 5518 5515 5511 5508 5504 5501 5498 5495 5492 5489 5487 5485 5484 5482 5482 5481 5480 5479 5479 5479 5479 5479 5479 5479
5576 5572 5567 5563 5559 5556 5558 5554 5549 5546 5544 5540 5536 5532 5529 5525 5521 5518 5514 5510 5506 5503 5499 5495 5492 5488 5485 5482 5479 5476 5474 5472 5470 5469 5468 5467 5466 5465 5465 5465 5465 5464 5464 5464
5564 5561 5558 5552 5547 5545 5547 5542 5537 5534 5531 5529 5524 5520 5516 5513 5509 5508 5502 5497 5494 5490 5486 5483 5479 5476 5472 5469 5466 5463 5461 5459 5457 5455 5454 5453 5452 5451 5451 5450 5450 5450 5450 5450
5553 5549 5546 5542 5536 5534 5534 5530 5526 5523 5521 5517 5512 5508 5504 5501 5497 5494 5489 5485 5481 5477 5474 5470 5467 5463 5460 5456 5453 5451 5448 5446 5443 5442 5440 5439 5438 5437 5437 5436 5436 5435 5435 5435
5542 5538 5535 5530 5526 5526 5522 5518 5515 5511 5507 5503 5499 5496 5492 5489 5484 5480 5476 5472 5468 5465 5461 5457 5454 5450 5447 5444 5441 5438 5436 5433 5430 5429 5427 5426 5424 5423 5423 5422 5421 5421 5421 5421
5530 5528 5523 5520 5518 5514 5510 5506 5503 5499 5495 5491 5487 5484 5480 5476 5472 5468 5464 5460 5456 5452 5448 5444 5441 5437 5434 5431 5428 5426 5423 5420 5418 5415 5414 5412 5411 5410 5409 5408 5407 5407 5406 5406
5519 5515 5511 5508 5507 5503 5499 5494 5491 5487 5483 5479 5475 5471 5467 5463 5459 5455 5451 5447 5443 5439 5435 5431 5428 5424 5422 5418 5415 5412 5409 5407 5405 5403 5401 5399 5398 5397 5396 5394 5394 5393 5392 5392
5508 5503 5499 5496 5495 5491 5488 5483 5479 5475 5471 5467 5463 5459 5455 5451 5446 5442 5438 5434 5429 5425 5422 5418 5415 5411 5408 5405 5403 5399 5397 5394 5392 5390 5388 5387 5385 5384 5383 5381 5380 5379 5379 5377
5497 5492 5488 5486 5483 5478 5475 5471 5467 5463 5459 5455 5451 5447 5442 5437 5433 5429 5425 5420 5416 5412 5408 5405 5401 5398 5395 5392 5390 5387 5384 5382 5380 5378 5376 5374 5373 5371 5370 5368 5367 5365 5365 5364